Location: Newark
(45.6833°N, 12.6333°E)
Time: 18:49:03
(UTC+00:00)

N. Korean satellite - Pass Details

Date: 25 November 2019
Orbit: 456 x 506 km, 97.2° (Epoch: 09 December)

Event Time Altitude Azimuth Distance (km) Brightness Sun altitude
Rises 05:07:36 0° 12° (NNE) 2,607 10.2 -12.7°
Reaches altitude 10° 05:09:42 10° 12° (NNE) 1,711 9.3 -12.4°
Maximum altitude 05:13:23 88° 286° (WNW) 500 6.5 -11.8°
Drops below altitude 10° 05:17:00 10° 194° (SSW) 1,670 9.3 -11.2°
Sets 05:19:02 0° 194° (SSW) 2,536 10.3 -10.8°
